Location: Balsareny
(41.8670°N, 1.8830°E)
Time: 06:54:08
(UTC+02:00)

X-37B - Pass Details

Date: 20 June 2021
Orbit: 383 x 392 km, 45.0° (Epoch: 01 July)

Event Time Altitude Azimuth Distance (km) Brightness Sun altitude
Exits shadow 02:28:43 17° 64° (ENE) 1,060 3.1 -24.2°
Drops below altitude 10° 02:29:36 10° 69° (ENE) 1,405 3.7 -24.2°
Sets 02:31:43 0° 75° (ENE) 2,261 4.8 -24.1°
